Location: El Manguito
(10.2358°N, 67.3634°W)
Time: 21:59:25
(UTC+00:00)

Aurora 2 Rocket - Pass Details

Date: 07 December 2024
Orbit: 386 x 1590 km, 25.0° (Epoch: 12 January)

Event Time Altitude Azimuth Distance (km) Brightness Sun altitude
Exits shadow 08:45:04 21° 16° (NNE) 1,589 4.6 -26.0°
Drops below altitude 10° 08:48:06 10° 57° (ENE) 2,012 5.6 -25.3°
Sets 08:50:34 0° 73° (ENE) 2,743 6.7 -24.7°
